TimeEDT,TemperatureF,Dew PointF,Humidity,Sea Level PressureIn,VisibilityMPH,Wind Direction,Wind SpeedMPH,Gust SpeedMPH,PrecipitationIn,Events,Conditions,WindDirDegrees,DateUTC
12:53 AM,52.0,43.0,71,30.27,10.0,North,5.8,-,N/A,,Clear,10,2013-03-28 04:53:00
1:53 AM,52.0,44.1,74,30.26,10.0,NNE,5.8,-,N/A,,Clear,20,2013-03-28 05:53:00
2:53 AM,52.0,45.0,77,30.25,10.0,NNE,6.9,-,N/A,,Clear,20,2013-03-28 06:53:00
3:53 AM,53.1,46.0,77,30.25,10.0,NNE,8.1,-,N/A,,Clear,30,2013-03-28 07:53:00
4:53 AM,54.0,46.9,77,30.25,10.0,NE,11.5,-,N/A,,Clear,40,2013-03-28 08:53:00
5:53 AM,53.1,46.0,77,30.25,10.0,NNE,8.1,-,N/A,,Clear,20,2013-03-28 09:53:00
6:53 AM,52.0,43.0,71,30.26,10.0,NNE,8.1,-,N/A,,Clear,20,2013-03-28 10:53:00
7:53 AM,52.0,39.9,63,30.27,10.0,NE,9.2,-,N/A,,Clear,50,2013-03-28 11:53:00
8:53 AM,55.0,39.0,55,30.30,10.0,NE,9.2,-,N/A,,Clear,40,2013-03-28 12:53:00
9:53 AM,57.0,37.0,47,30.31,10.0,NE,8.1,-,N/A,,Clear,50,2013-03-28 13:53:00
10:53 AM,59.0,36.0,42,30.31,10.0,North,-9999.0,-,N/A,,Clear,0,2013-03-28 14:53:00
11:53 AM,61.0,34.0,36,30.31,10.0,NE,8.1,-,N/A,,Clear,50,2013-03-28 15:53:00
12:53 PM,64.0,32.0,30,30.30,10.0,East,5.8,-,N/A,,Clear,100,2013-03-28 16:53:00
1:53 PM,64.9,32.0,29,30.27,10.0,SE,8.1,-,N/A,,Clear,140,2013-03-28 17:53:00
2:53 PM,66.0,33.1,29,30.25,10.0,SSE,6.9,-,N/A,,Clear,150,2013-03-28 18:53:00
3:53 PM,66.9,39.0,36,30.22,10.0,South,9.2,-,N/A,,Clear,170,2013-03-28 19:53:00
4:53 PM,66.9,37.9,34,30.20,10.0,South,8.1,-,N/A,,Clear,190,2013-03-28 20:53:00
5:53 PM,68.0,25.0,20,30.21,10.0,NW,9.2,-,N/A,,Clear,320,2013-03-28 21:53:00
6:53 PM,64.9,28.9,26,30.22,10.0,NW,9.2,-,N/A,,Clear,320,2013-03-28 22:53:00
7:53 PM,62.1,34.0,35,30.24,10.0,NNW,8.1,-,N/A,,Clear,330,2013-03-28 23:53:00
8:53 PM,60.1,37.9,44,30.25,10.0,North,9.2,-,N/A,,Clear,350,2013-03-29 00:53:00
9:53 PM,59.0,42.1,53,30.25,10.0,North,10.4,-,N/A,,Clear,360,2013-03-29 01:53:00
10:53 PM,57.9,44.1,60,30.27,10.0,North,6.9,-,N/A,,Clear,10,2013-03-29 02:53:00
11:53 PM,57.9,45.0,62,30.28,10.0,North,6.9,-,N/A,,Clear,360,2013-03-29 03:53:00